#datetime,meter,power
2023-09-18T00:00:00,01,1.63
2023-09-18T00:01:00,01,0.28
2023-09-18T00:02:00,01,0.28
2023-09-18T00:03:00,01,1.75
2023-09-18T00:04:00,01,1.75
2023-09-18T00:05:00,01,3.57
2023-09-18T00:06:00,01,3.57
2023-09-18T00:07:00,01,1.49
2023-09-18T00:09:00,01,1.06
2023-09-18T00:10:00,01,1.53
2023-09-18T00:11:00,01,1.53
2023-09-18T00:12:00,01,1.27
2023-09-18T00:13:00,01,1.27
2023-09-18T00:14:00,01,1.22
2023-09-18T00:15:00,01,1.12
2023-09-18T00:16:00,01,1.44
2023-09-18T00:17:00,01,1.44
2023-09-18T00:18:00,01,1.01
2023-09-18T00:19:00,01,1.01
2023-09-18T00:20:00,01,0.84
2023-09-18T00:21:00,01,2.66
2023-09-18T00:22:00,01,2.66
2023-09-18T00:23:00,01,1.08
2023-09-18T00:24:00,01,1.08
2023-09-18T00:25:00,01,1.69
2023-09-18T00:26:00,01,1.52
2023-09-18T00:27:00,01,2.30
2023-09-18T00:28:00,01,2.30
2023-09-18T00:29:00,01,1.12
2023-09-18T00:32:00,01,0.74
2023-09-18T00:33:00,01,0.74
2023-09-18T00:34:00,01,0.45
2023-09-18T00:35:00,01,0.45
2023-09-18T00:38:00,01,0.46
2023-09-18T00:39:00,01,0.46
2023-09-18T00:40:00,01,0.92
2023-09-18T00:41:00,01,1.56
2023-09-18T00:42:00,01,1.56
2023-09-18T00:43:00,01,1.72
2023-09-18T00:44:00,01,1.72
2023-09-18T00:45:00,01,3.25
2023-09-18T00:46:00,01,1.20
2023-09-18T00:47:00,01,1.20
2023-09-18T00:50:00,01,0.83
2023-09-18T00:51:00,01,0.83
2023-09-18T00:52:00,01,2.75
2023-09-18T00:56:00,01,0.67
2023-09-18T00:57:00,01,0.67
2023-09-18T00:58:00,01,2.91
2023-09-18T00:59:00,01,2.91
2023-09-18T01:03:00,01,2.93
2023-09-18T01:04:00,01,2.93
2023-09-18T01:05:00,01,1.39
2023-09-18T01:10:00,01,2.42
2023-09-18T01:11:00,01,2.42
2023-09-18T01:16:00,01,0.80
2023-09-18T01:17:00,01,0.80
2023-09-18T01:18:00,01,1.32
2023-09-18T01:19:00,01,1.32
2023-09-18T01:22:00,01,1.85
2023-09-18T01:23:00,01,1.85
2023-09-18T01:25:00,01,0.69
2023-09-18T01:26:00,01,0.69
2023-09-18T01:27:00,01,2.83
2023-09-18T01:28:00,01,2.83
2023-09-18T01:29:00,01,0.35
2023-09-18T01:30:00,01,0.35
2023-09-18T01:33:00,01,2.04
2023-09-18T01:34:00,01,2.04
2023-09-18T01:35:00,01,2.02
2023-09-18T01:39:00,01,0.60
2023-09-18T01:40:00,01,0.60
2023-09-18T01:41:00,01,1.68
2023-09-18T01:42:00,01,1.68
2023-09-18T01:45:00,01,0.74
2023-09-18T01:46:00,01,0.74
2023-09-18T01:47:00,01,1.80
2023-09-18T01:48:00,01,0.09
2023-09-18T01:49:00,01,0.09
2023-09-18T01:52:00,01,1.04
2023-09-18T01:53:00,01,1.04
2023-09-18T01:54:00,01,1.34
2023-09-18T01:55:00,01,1.34
2023-09-18T01:57:00,01,0.18
2023-09-18T01:58:00,01,0.18
2023-09-18T01:59:00,01,1.98
2023-09-18T02:00:00,01,1.98
2023-09-18T02:01:00,01,0.21
2023-09-18T02:02:00,01,0.21
2023-09-18T02:08:00,01,0.40
2023-09-18T02:09:00,01,0.40
2023-09-18T02:10:00,01,0.48
2023-09-18T02:11:00,01,0.48
2023-09-18T02:14:00,01,0.36
2023-09-18T02:15:00,01,1.86
2023-09-18T02:16:00,01,1.86
2023-09-18T02:17:00,01,0.27
2023-09-18T02:20:00,01,0.40
2023-09-18T02:21:00,01,0.40
2023-09-18T02:22:00,01,2.27
2023-09-18T02:23:00,01,0.33
2023-09-18T02:24:00,01,0.33
2023-09-18T02:29:00,01,2.48
2023-09-18T02:30:00,01,2.48
2023-09-18T02:35:00,01,2.89
2023-09-18T02:36:00,01,3.19
2023-09-18T02:37:00,01,3.19
2023-09-18T02:38:00,01,0.85
2023-09-18T02:39:00,01,0.85
2023-09-18T02:41:00,01,1.17
2023-09-18T02:42:00,01,1.17
2023-09-18T02:43:00,01,1.05
2023-09-18T02:44:00,01,0.86
2023-09-18T02:45:00,01,0.86
2023-09-18T02:46:00,01,0.95
2023-09-18T02:47:00,01,0.95
2023-09-18T02:48:00,01,0.42
2023-09-18T02:51:00,01,1.57
2023-09-18T02:52:00,01,3.74
2023-09-18T02:53:00,01,3.74
2023-09-18T02:54:00,01,0.89
2023-09-18T02:55:00,01,0.89
2023-09-18T02:57:00,01,1.00
2023-09-18T02:58:00,01,1.00
2023-09-18T02:59:00,01,2.14
2023-09-18T03:00:00,01,2.27
2023-09-18T03:05:00,01,1.69
2023-09-18T03:06:00,01,1.69
2023-09-18T03:11:00,01,2.25
2023-09-18T03:12:00,01,2.25
2023-09-18T03:17:00,01,1.85
2023-09-18T03:18:00,01,1.85
2023-09-18T03:22:00,01,2.32
2023-09-18T03:23:00,01,2.33
2023-09-18T03:24:00,01,2.33
2023-09-18T03:29:00,01,2.86
2023-09-18T03:30:00,01,2.77
2023-09-18T03:31:00,01,2.77
2023-09-18T03:34:00,01,1.08
2023-09-18T03:35:00,01,1.08
2023-09-18T03:36:00,01,3.05
2023-09-18T03:37:00,01,1.01
2023-09-18T03:38:00,01,1.01
2023-09-18T03:41:00,01,3.26
2023-09-18T03:42:00,01,3.26
2023-09-18T03:43:00,01,1.52
2023-09-18T03:44:00,01,1.52
2023-09-18T03:47:00,01,0.60
2023-09-18T03:48:00,01,0.60
2023-09-18T03:49:00,01,0.60
2023-09-18T03:50:00,01,1.18
2023-09-18T03:51:00,01,1.25
2023-09-18T03:52:00,01,1.25
2023-09-18T03:53:00,01,0.93
2023-09-18T03:54:00,01,0.92
2023-09-18T03:57:00,01,1.04
2023-09-18T03:58:00,01,1.04
2023-09-18T03:59:00,01,0.58
2023-09-18T04:00:00,01,0.58
2023-09-18T04:05:00,01,2.99
2023-09-18T04:06:00,01,2.99
2023-09-18T04:11:00,01,1.53
2023-09-18T04:12:00,01,1.53
2023-09-18T04:17:00,01,0.33
2023-09-18T04:18:00,01,2.23
2023-09-18T04:19:00,01,2.23
2023-09-18T04:20:00,01,0.32
2023-09-18T04:21:00,01,0.32
2023-09-18T04:26:00,01,0.47
2023-09-18T04:27:00,01,0.47
2023-09-18T04:28:00,01,1.98
2023-09-18T04:29:00,01,0.18
2023-09-18T04:30:00,01,0.25
2023-09-18T04:31:00,01,0.25
2023-09-18T04:34:00,01,2.38
2023-09-18T04:35:00,01,2.38
2023-09-18T04:36:00,01,2.58
2023-09-18T04:37:00,01,2.58
2023-09-18T04:41:00,01,2.37
2023-09-18T04:42:00,01,2.37
2023-09-18T04:43:00,01,2.50
2023-09-18T04:44:00,01,2.50
2023-09-18T04:47:00,01,0.34
2023-09-18T04:48:00,01,0.34
2023-09-18T04:49:00,01,2.25
2023-09-18T04:50:00,01,2.25
2023-09-18T04:53:00,01,0.65
2023-09-18T04:54:00,01,1.62
2023-09-18T04:55:00,01,1.62
2023-09-18T04:56:00,01,0.05
2023-09-18T04:57:00,01,0.05
2023-09-18T04:59:00,01,0.38
2023-09-18T05:00:00,01,0.38
2023-09-18T05:01:00,01,2.09
2023-09-18T05:02:00,01,2.09
2023-09-18T05:05:00,01,0.38
2023-09-18T05:06:00,01,0.38
2023-09-18T05:07:00,01,2.38
2023-09-18T05:08:00,01,0.08
2023-09-18T05:09:00,01,0.08
2023-09-18T05:13:00,01,1.68
2023-09-18T05:14:00,01,1.68
2023-09-18T05:15:00,01,0.51
2023-09-18T05:17:00,01,0.21
2023-09-18T05:18:00,01,0.21
2023-09-18T05:19:00,01,2.23
2023-09-18T05:28:00,01,0.14
2023-09-18T05:29:00,01,2.02
2023-09-18T05:30:00,01,2.02
2023-09-18T05:35:00,01,1.36
2023-09-18T05:36:00,01,1.30
2023-09-18T05:41:00,01,0.19
2023-09-18T05:42:00,01,1.93
2023-09-18T05:43:00,01,2.57
2023-09-18T05:44:00,01,2.57
2023-09-18T05:47:00,01,0.80
2023-09-18T05:48:00,01,0.47
2023-09-18T05:49:00,01,0.47
2023-09-18T05:50:00,01,0.70
2023-09-18T05:51:00,01,0.04
2023-09-18T05:56:00,01,0.14
2023-09-18T05:57:00,01,0.29
2023-09-18T05:58:00,01,0.29
2023-09-18T06:03:00,01,0.37
2023-09-18T06:04:00,01,0.37
2023-09-18T06:05:00,01,2.14
2023-09-18T06:06:00,01,2.14
2023-09-18T06:07:00,01,3.02
2023-09-18T06:08:00,01,3.02
2023-09-18T06:11:00,01,2.36
2023-09-18T06:12:00,01,2.36
2023-09-18T06:13:00,01,2.16
2023-09-18T06:19:00,01,1.68
2023-09-18T06:20:00,01,1.68
2023-09-18T06:24:00,01,0.16
2023-09-18T06:25:00,01,0.16
2023-09-18T06:26:00,01,0.25
2023-09-18T06:27:00,01,0.23
2023-09-18T06:28:00,01,0.23
2023-09-18T06:29:00,01,1.03
2023-09-18T06:30:00,01,0.54
2023-09-18T06:31:00,01,0.54
2023-09-18T06:37:00,01,0.68
2023-09-18T06:38:00,01,0.68
2023-09-18T06:39:00,01,1.26
2023-09-18T06:40:00,01,1.26
2023-09-18T06:41:00,01,3.68
2023-09-18T06:42:00,01,3.68
2023-09-18T06:43:00,01,1.73
2023-09-18T06:44:00,01,1.73
2023-09-18T06:47:00,01,3.83
2023-09-18T06:48:00,01,3.58
2023-09-18T06:49:00,01,3.58
2023-09-18T06:53:00,01,1.38
2023-09-18T06:54:00,01,1.38
2023-09-18T06:55:00,01,4.01
2023-09-18T06:56:00,01,4.01
2023-09-18T06:57:00,01,0.28
2023-09-18T06:58:00,01,0.28
2023-09-18T06:59:00,01,1.79
2023-09-18T07:00:00,01,1.51
2023-09-18T07:01:00,01,1.51
2023-09-18T07:02:00,01,1.72
2023-09-18T07:03:00,01,1.72
2023-09-18T07:06:00,01,1.92
2023-09-18T07:07:00,01,1.59
2023-09-18T07:08:00,01,1.59
2023-09-18T07:09:00,01,1.15
2023-09-18T07:10:00,01,1.15
2023-09-18T07:11:00,01,2.40
2023-09-18T07:12:00,01,2.40
2023-09-18T07:13:00,01,0.67
2023-09-18T07:16:00,01,1.36
2023-09-18T07:17:00,01,3.04
2023-09-18T07:18:00,01,3.04
2023-09-18T07:19:00,01,1.84
2023-09-18T07:20:00,01,0.14
2023-09-18T07:21:00,01,0.14
2023-09-18T07:22:00,01,3.60
2023-09-18T07:23:00,01,3.60
2023-09-18T07:24:00,01,2.87
2023-09-18T07:25:00,01,2.87
2023-09-18T07:26:00,01,0.80
2023-09-18T07:27:00,01,0.80
2023-09-18T07:30:00,01,1.21
2023-09-18T07:31:00,01,3.00
2023-09-18T07:32:00,01,3.00
2023-09-18T07:33:00,01,1.89
2023-09-18T07:34:00,01,0.29
2023-09-18T07:35:00,01,0.29
2023-09-18T07:36:00,01,1.84
2023-09-18T07:37:00,01,1.84
2023-09-18T07:38:00,01,1.55
2023-09-18T07:39:00,01,1.55
2023-09-18T07:40:00,01,1.82
2023-09-18T07:41:00,01,1.61
2023-09-18T07:42:00,01,1.61
2023-09-18T07:43:00,01,1.53
2023-09-18T07:44:00,01,1.53
2023-09-18T07:47:00,01,2.81
2023-09-18T07:48:00,01,2.81
2023-09-18T07:49:00,01,1.27
2023-09-18T07:50:00,01,1.27
2023-09-18T07:51:00,01,0.45
2023-09-18T07:52:00,01,0.45
2023-09-18T07:53:00,01,1.16
2023-09-18T07:54:00,01,1.16
2023-09-18T07:55:00,01,4.17
2023-09-18T07:56:00,01,8.74
2023-09-18T07:57:00,01,8.74
2023-09-18T07:58:00,01,0.62
2023-09-18T07:59:00,01,0.78
2023-09-18T08:00:00,01,2.00
2023-09-18T08:01:00,01,2.03
2023-09-18T08:02:00,01,2.03
2023-09-18T08:03:00,01,2.04
2023-09-18T08:04:00,01,2.04
2023-09-18T08:05:00,01,0.17
2023-09-18T08:06:00,01,6.43
2023-09-18T08:07:00,01,6.43
2023-09-18T08:08:00,01,1.71
2023-09-18T08:09:00,01,1.71
2023-09-18T08:10:00,01,1.14
2023-09-18T08:11:00,01,2.35
2023-09-18T08:12:00,01,2.35
2023-09-18T08:13:00,01,1.67
2023-09-18T08:14:00,01,1.67
2023-09-18T08:15:00,01,0.17
2023-09-18T08:16:00,01,0.17
2023-09-18T08:17:00,01,1.81
2023-09-18T08:18:00,01,3.35
2023-09-18T08:19:00,01,3.35
2023-09-18T08:20:00,01,1.32
2023-09-18T08:21:00,01,1.32
2023-09-18T08:22:00,01,1.70
2023-09-18T08:23:00,01,1.68
2023-09-18T08:24:00,01,1.68
2023-09-18T08:25:00,01,3.61
2023-09-18T08:26:00,01,3.74
2023-09-18T08:27:00,01,3.74
2023-09-18T08:28:00,01,1.53
2023-09-18T08:29:00,01,1.53
2023-09-18T08:30:00,01,3.71
2023-09-18T08:31:00,01,3.63
2023-09-18T08:32:00,01,3.63
2023-09-18T08:33:00,01,1.86
2023-09-18T08:34:00,01,1.86
2023-09-18T08:35:00,01,1.47
2023-09-18T08:36:00,01,1.47
2023-09-18T08:37:00,01,1.20
2023-09-18T08:38:00,01,1.20
2023-09-18T08:42:00,01,2.00
2023-09-18T08:43:00,01,2.00
2023-09-18T08:44:00,01,2.94
2023-09-18T08:45:00,01,2.94
2023-09-18T08:46:00,01,0.37
2023-09-18T08:47:00,01,0.06
2023-09-18T08:48:00,01,0.06
2023-09-18T08:49:00,01,1.38
2023-09-18T08:50:00,01,3.13
2023-09-18T08:51:00,01,3.13
2023-09-18T08:52:00,01,1.31
2023-09-18T08:55:00,01,1.81
2023-09-18T08:56:00,01,1.81
2023-09-18T08:57:00,01,1.05
2023-09-18T08:58:00,01,1.05
2023-09-18T08:59:00,01,1.99
2023-09-18T09:00:00,01,2.05
2023-09-18T09:01:00,01,2.05
2023-09-18T09:02:00,01,1.97
2023-09-18T09:03:00,01,0.27
2023-09-18T09:04:00,01,0.27
2023-09-18T09:05:00,01,1.66
2023-09-18T09:06:00,01,1.66
2023-09-18T09:07:00,01,4.41
2023-09-18T09:08:00,01,4.41
2023-09-18T09:11:00,01,1.15
2023-09-18T09:12:00,01,2.09
2023-09-18T09:13:00,01,2.09
2023-09-18T09:14:00,01,3.08
2023-09-18T09:19:00,01,3.46
2023-09-18T09:20:00,01,3.02
2023-09-18T09:21:00,01,3.02
2023-09-18T09:22:00,01,0.23
2023-09-18T09:23:00,01,0.23
2023-09-18T09:24:00,01,1.52
2023-09-18T09:25:00,01,0.47
2023-09-18T09:26:00,01,0.47
2023-09-18T09:27:00,01,1.04
2023-09-18T09:28:00,01,0.74
2023-09-18T09:29:00,01,0.74
2023-09-18T09:30:00,01,1.00
2023-09-18T09:31:00,01,0.90
2023-09-18T09:32:00,01,0.90
2023-09-18T09:33:00,01,2.29
2023-09-18T09:34:00,01,2.47
2023-09-18T09:35:00,01,2.47
2023-09-18T09:41:00,01,2.65
2023-09-18T09:42:00,01,2.65
2023-09-18T09:43:00,01,3.89
2023-09-18T09:44:00,01,3.89
2023-09-18T09:45:00,01,0.24
2023-09-18T09:46:00,01,0.24
2023-09-18T09:47:00,01,0.26
2023-09-18T09:48:00,01,1.24
2023-09-18T09:49:00,01,1.24
2023-09-18T09:50:00,01,3.43
2023-09-18T09:51:00,01,3.43
2023-09-18T09:54:00,01,1.42
2023-09-18T09:55:00,01,1.75
2023-09-18T09:56:00,01,1.75
2023-09-18T09:57:00,01,1.89
2023-09-18T09:58:00,01,1.89
2023-09-18T09:59:00,01,1.19
2023-09-18T10:00:00,01,1.19
2023-09-18T10:01:00,01,0.57
2023-09-18T10:02:00,01,0.57
2023-09-18T10:04:00,01,0.44
2023-09-18T10:05:00,01,1.08
2023-09-18T10:06:00,01,1.08
2023-09-18T10:07:00,01,1.39
2023-09-18T10:08:00,01,1.39
2023-09-18T10:09:00,01,1.32
2023-09-18T10:10:00,01,1.32
2023-09-18T10:11:00,01,2.17
2023-09-18T10:12:00,01,1.94
2023-09-18T10:13:00,01,1.59
2023-09-18T10:14:00,01,1.59
2023-09-18T10:15:00,01,1.16
2023-09-18T10:18:00,01,1.00
2023-09-18T10:19:00,01,2.99
2023-09-18T10:20:00,01,2.99
2023-09-18T10:25:00,01,2.84
2023-09-18T10:26:00,01,2.84
2023-09-18T10:27:00,01,3.09
2023-09-18T10:28:00,01,3.09
2023-09-18T10:31:00,01,0.17
2023-09-18T10:32:00,01,0.17
2023-09-18T10:33:00,01,1.97
2023-09-18T10:34:00,01,0.71
2023-09-18T10:35:00,01,0.68
2023-09-18T10:36:00,01,0.68
2023-09-18T10:37:00,01,0.87
2023-09-18T10:38:00,01,0.90
2023-09-18T10:39:00,01,0.56
2023-09-18T10:40:00,01,0.56
2023-09-18T10:41:00,01,0.89
2023-09-18T10:42:00,01,0.89
2023-09-18T10:43:00,01,6.07
2023-09-18T10:44:00,01,3.49
2023-09-18T10:45:00,01,3.49
2023-09-18T10:46:00,01,4.95
2023-09-18T10:47:00,01,4.95
2023-09-18T10:48:00,01,7.15
2023-09-18T10:49:00,01,7.15
2023-09-18T10:50:00,01,8.34
2023-09-18T10:51:00,01,8.34
2023-09-18T10:52:00,01,5.81
2023-09-18T10:53:00,01,5.57
2023-09-18T10:54:00,01,5.57
2023-09-18T10:55:00,01,9.09
2023-09-18T10:56:00,01,9.09
2023-09-18T10:57:00,01,9.06
2023-09-18T10:58:00,01,5.41
2023-09-18T10:59:00,01,5.41
2023-09-18T11:00:00,01,5.26
2023-09-18T11:01:00,01,5.26
2023-09-18T11:02:00,01,8.84
2023-09-18T11:03:00,01,8.76
2023-09-18T11:04:00,01,5.34
2023-09-18T11:05:00,01,5.34
2023-09-18T11:06:00,01,5.30
2023-09-18T11:07:00,01,8.52
2023-09-18T11:08:00,01,8.52
2023-09-18T11:09:00,01,8.49
2023-09-18T11:10:00,01,8.49
2023-09-18T11:11:00,01,5.08
2023-09-18T11:12:00,01,5.08
2023-09-18T11:13:00,01,6.92
2023-09-18T11:14:00,01,8.80
2023-09-18T11:15:00,01,8.80
2023-09-18T11:16:00,01,7.23
2023-09-18T11:17:00,01,7.99
2023-09-18T11:18:00,01,7.99
2023-09-18T11:19:00,01,6.78
2023-09-18T11:20:00,01,6.78
2023-09-18T11:21:00,01,7.46
2023-09-18T11:22:00,01,5.87
2023-09-18T11:23:00,01,5.87
2023-09-18T11:24:00,01,7.06
2023-09-18T11:25:00,01,7.06
2023-09-18T11:26:00,01,6.00
2023-09-18T11:27:00,01,6.00
2023-09-18T11:28:00,01,6.47
2023-09-18T11:29:00,01,6.47
2023-09-18T11:30:00,01,11.34
2023-09-18T11:31:00,01,11.31
2023-09-18T11:32:00,01,11.31
2023-09-18T11:33:00,01,6.18
2023-09-18T11:34:00,01,3.86
2023-09-18T11:35:00,01,3.86
2023-09-18T11:36:00,01,6.08
2023-09-18T11:37:00,01,8.56
2023-09-18T11:38:00,01,8.56
2023-09-18T11:39:00,01,11.62
2023-09-18T11:40:00,01,9.69
2023-09-18T11:41:00,01,9.69
2023-09-18T11:42:00,01,9.67
2023-09-18T11:43:00,01,9.67
2023-09-18T11:44:00,01,8.58
2023-09-18T11:45:00,01,8.64
2023-09-18T11:46:00,01,8.64
2023-09-18T11:47:00,01,5.60
2023-09-18T11:48:00,01,6.01
2023-09-18T11:49:00,01,6.01
2023-09-18T11:50:00,01,7.59
2023-09-18T11:51:00,01,9.14
2023-09-18T11:52:00,01,9.51
2023-09-18T11:53:00,01,9.51
2023-09-18T11:54:00,01,6.05
2023-09-18T11:55:00,01,10.58
2023-09-18T11:56:00,01,10.58
2023-09-18T11:57:00,01,7.17
2023-09-18T11:58:00,01,6.58
2023-09-18T11:59:00,01,7.71
2023-09-18T12:00:00,01,7.71
2023-09-18T12:01:00,01,7.14
2023-09-18T12:02:00,01,5.32
2023-09-18T12:03:00,01,5.27
2023-09-18T12:04:00,01,5.27
2023-09-18T12:05:00,01,6.87
2023-09-18T12:06:00,01,8.49
2023-09-18T12:07:00,01,8.49
2023-09-18T12:08:00,01,6.84
2023-09-18T12:09:00,01,6.93
2023-09-18T12:10:00,01,6.93
2023-09-18T12:11:00,01,6.40
2023-09-18T12:12:00,01,6.40
2023-09-18T12:13:00,01,6.59
2023-09-18T12:14:00,01,6.59
2023-09-18T12:15:00,01,6.45
2023-09-18T12:16:00,01,6.45
2023-09-18T12:17:00,01,6.80
2023-09-18T12:18:00,01,6.80
2023-09-18T12:19:00,01,4.73
2023-09-18T12:20:00,01,4.73
2023-09-18T12:21:00,01,6.88
2023-09-18T12:22:00,01,6.88
2023-09-18T12:23:00,01,9.57
2023-09-18T12:24:00,01,9.57
2023-09-18T12:25:00,01,10.14
2023-09-18T12:26:00,01,9.40
2023-09-18T12:27:00,01,9.40
2023-09-18T12:28:00,01,8.39
2023-09-18T12:29:00,01,8.39
2023-09-18T12:30:00,01,6.15
2023-09-18T12:31:00,01,7.81
2023-09-18T12:32:00,01,7.81
2023-09-18T12:33:00,01,9.53
2023-09-18T12:34:00,01,9.53
2023-09-18T12:35:00,01,6.71
2023-09-18T12:36:00,01,6.71
2023-09-18T12:37:00,01,4.59
2023-09-18T12:38:00,01,4.59
2023-09-18T12:39:00,01,4.71
2023-09-18T12:40:00,01,6.25
2023-09-18T12:41:00,01,6.25
2023-09-18T12:42:00,01,7.67
2023-09-18T12:43:00,01,6.07
2023-09-18T12:44:00,01,3.99
2023-09-18T12:45:00,01,4.36
2023-09-18T12:46:00,01,4.36
2023-09-18T12:47:00,01,6.01
2023-09-18T12:48:00,01,7.93
2023-09-18T12:49:00,01,7.93
2023-09-18T12:50:00,01,6.45
2023-09-18T12:51:00,01,4.77
2023-09-18T12:52:00,01,6.62
2023-09-18T12:53:00,01,6.62
2023-09-18T12:54:00,01,8.59
2023-09-18T12:55:00,01,8.47
2023-09-18T12:56:00,01,8.47
2023-09-18T12:57:00,01,5.32
2023-09-18T12:58:00,01,5.32
2023-09-18T12:59:00,01,7.40
2023-09-18T13:00:00,01,7.40
2023-09-18T13:01:00,01,13.76
2023-09-18T13:02:00,01,10.87
2023-09-18T13:03:00,01,10.87
2023-09-18T13:04:00,01,4.22
2023-09-18T13:05:00,01,5.98
2023-09-18T13:06:00,01,5.98
2023-09-18T13:07:00,01,7.71
2023-09-18T13:08:00,01,7.71
2023-09-18T13:09:00,01,4.32
2023-09-18T13:10:00,01,4.63
2023-09-18T13:11:00,01,4.52
2023-09-18T13:12:00,01,4.52
2023-09-18T13:13:00,01,7.87
2023-09-18T13:14:00,01,7.87
2023-09-18T13:15:00,01,8.02
2023-09-18T13:16:00,01,8.02
2023-09-18T13:17:00,01,5.14
2023-09-18T13:18:00,01,5.10
2023-09-18T13:19:00,01,6.20
2023-09-18T13:20:00,01,6.20
2023-09-18T13:21:00,01,7.28
2023-09-18T13:22:00,01,7.28
2023-09-18T13:23:00,01,6.15
2023-09-18T13:24:00,01,6.15
2023-09-18T13:25:00,01,6.64
2023-09-18T13:26:00,01,7.03
2023-09-18T13:27:00,01,7.03
2023-09-18T13:28:00,01,6.61
2023-09-18T13:29:00,01,6.73
2023-09-18T13:30:00,01,6.88
2023-09-18T13:31:00,01,7.30
2023-09-18T13:32:00,01,7.30
2023-09-18T13:33:00,01,7.01
2023-09-18T13:34:00,01,7.01
2023-09-18T13:35:00,01,6.60
2023-09-18T13:36:00,01,6.46
2023-09-18T13:37:00,01,6.82
2023-09-18T13:38:00,01,6.82
2023-09-18T13:39:00,01,6.05
2023-09-18T13:40:00,01,6.26
2023-09-18T13:41:00,01,6.26
2023-09-18T13:42:00,01,5.76
2023-09-18T13:43:00,01,5.83
2023-09-18T13:44:00,01,5.83
2023-09-18T13:45:00,01,6.78
2023-09-18T13:46:00,01,6.78
2023-09-18T13:47:00,01,5.24
2023-09-18T13:48:00,01,5.24
2023-09-18T13:49:00,01,6.51
2023-09-18T13:50:00,01,8.22
2023-09-18T13:51:00,01,8.22
2023-09-18T13:52:00,01,8.52
2023-09-18T13:53:00,01,5.31
2023-09-18T13:54:00,01,5.31
2023-09-18T13:55:00,01,5.37
2023-09-18T13:56:00,01,6.80
2023-09-18T13:57:00,01,6.80
2023-09-18T13:58:00,01,8.08
2023-09-18T13:59:00,01,8.08
2023-09-18T14:00:00,01,4.49
2023-09-18T14:01:00,01,4.83
2023-09-18T14:02:00,01,4.83
2023-09-18T14:03:00,01,7.31
2023-09-18T14:04:00,01,7.31
2023-09-18T14:05:00,01,6.93
2023-09-18T14:06:00,01,6.93
2023-09-18T14:07:00,01,5.76
2023-09-18T14:08:00,01,5.76
2023-09-18T14:09:00,01,7.00
2023-09-18T14:10:00,01,8.94
2023-09-18T14:11:00,01,8.94
2023-09-18T14:12:00,01,6.97
2023-09-18T14:13:00,01,5.31
2023-09-18T14:14:00,01,5.31
2023-09-18T14:15:00,01,6.19
2023-09-18T14:16:00,01,6.19
2023-09-18T14:17:00,01,7.30
2023-09-18T14:18:00,01,5.63
2023-09-18T14:19:00,01,7.14
2023-09-18T14:20:00,01,7.14
2023-09-18T14:21:00,01,6.92
2023-09-18T14:22:00,01,6.51
2023-09-18T14:23:00,01,6.51
2023-09-18T14:24:00,01,7.00
2023-09-18T14:25:00,01,7.00
2023-09-18T14:26:00,01,7.00
2023-09-18T14:27:00,01,8.71
2023-09-18T14:28:00,01,8.71
2023-09-18T14:29:00,01,6.62
2023-09-18T14:30:00,01,6.62
2023-09-18T14:31:00,01,6.82
2023-09-18T14:32:00,01,6.82
2023-09-18T14:33:00,01,6.91
2023-09-18T14:34:00,01,6.91
2023-09-18T14:35:00,01,7.17
2023-09-18T14:36:00,01,7.17
2023-09-18T14:37:00,01,6.80
2023-09-18T14:38:00,01,6.80
2023-09-18T14:39:00,01,6.40
2023-09-18T14:40:00,01,6.38
2023-09-18T14:41:00,01,6.38
2023-09-18T14:42:00,01,6.47
2023-09-18T14:43:00,01,6.70
2023-09-18T14:44:00,01,6.70
2023-09-18T14:45:00,01,7.36
2023-09-18T14:46:00,01,7.36
2023-09-18T14:47:00,01,7.26
2023-09-18T14:48:00,01,7.26
2023-09-18T14:49:00,01,7.03
2023-09-18T14:50:00,01,7.03
2023-09-18T14:51:00,01,6.88
2023-09-18T14:52:00,01,6.88
2023-09-18T14:53:00,01,6.03
2023-09-18T14:54:00,01,5.36
2023-09-18T14:55:00,01,5.36
2023-09-18T14:56:00,01,6.22
2023-09-18T14:57:00,01,6.02
2023-09-18T14:58:00,01,6.02
2023-09-18T14:59:00,01,5.17
2023-09-18T15:00:00,01,6.81
2023-09-18T15:01:00,01,6.81
2023-09-18T15:02:00,01,8.65
2023-09-18T15:03:00,01,8.65
2023-09-18T15:04:00,01,6.21
2023-09-18T15:05:00,01,6.44
2023-09-18T15:06:00,01,6.44
2023-09-18T15:07:00,01,6.91
2023-09-18T15:08:00,01,5.74
2023-09-18T15:09:00,01,5.74
2023-09-18T15:10:00,01,8.71
2023-09-18T15:11:00,01,8.71
2023-09-18T15:12:00,01,9.56
2023-09-18T15:13:00,01,9.56
2023-09-18T15:14:00,01,6.87
2023-09-18T15:15:00,01,5.15
2023-09-18T15:16:00,01,5.15
2023-09-18T15:17:00,01,6.85
2023-09-18T15:18:00,01,6.81
2023-09-18T15:19:00,01,6.81
2023-09-18T15:20:00,01,6.33
2023-09-18T15:21:00,01,6.33
2023-09-18T15:22:00,01,4.59
2023-09-18T15:23:00,01,4.78
2023-09-18T15:24:00,01,4.78
2023-09-18T15:25:00,01,8.50
2023-09-18T15:26:00,01,8.12
2023-09-18T15:27:00,01,8.12
2023-09-18T15:28:00,01,4.45
2023-09-18T15:29:00,01,4.40
2023-09-18T15:30:00,01,4.40
2023-09-18T15:31:00,01,5.03
2023-09-18T15:32:00,01,8.27
2023-09-18T15:33:00,01,8.27
2023-09-18T15:34:00,01,8.10
2023-09-18T15:35:00,01,8.10
2023-09-18T15:36:00,01,4.69
2023-09-18T15:37:00,01,4.92
2023-09-18T15:38:00,01,4.92
2023-09-18T15:39:00,01,8.83
2023-09-18T15:40:00,01,8.92
2023-09-18T15:41:00,01,7.25
2023-09-18T15:42:00,01,7.25
2023-09-18T15:43:00,01,5.28
2023-09-18T15:44:00,01,5.28
2023-09-18T15:45:00,01,5.21
2023-09-18T15:46:00,01,5.21
2023-09-18T15:47:00,01,8.77
2023-09-18T15:48:00,01,8.77
2023-09-18T15:49:00,01,7.57
2023-09-18T15:50:00,01,7.57
2023-09-18T15:51:00,01,5.13
2023-09-18T15:52:00,01,5.13
2023-09-18T15:53:00,01,7.17
2023-09-18T15:54:00,01,6.80
2023-09-18T15:55:00,01,6.80
2023-09-18T15:56:00,01,6.07
2023-09-18T15:57:00,01,6.07
2023-09-18T15:58:00,01,5.18
2023-09-18T15:59:00,01,5.18
2023-09-18T16:00:00,01,6.09
2023-09-18T16:01:00,01,6.70
2023-09-18T16:02:00,01,6.70
2023-09-18T16:03:00,01,6.76
2023-09-18T16:04:00,01,6.70
2023-09-18T16:05:00,01,6.70
2023-09-18T16:06:00,01,7.66
2023-09-18T16:07:00,01,7.66
2023-09-18T16:08:00,01,12.78
2023-09-18T16:09:00,01,11.15
2023-09-18T16:10:00,01,11.15
2023-09-18T16:11:00,01,12.82
2023-09-18T16:12:00,01,12.82
2023-09-18T16:13:00,01,7.57
2023-09-18T16:14:00,01,7.57
2023-09-18T16:15:00,01,8.53
2023-09-18T16:16:00,01,6.50
2023-09-18T16:17:00,01,6.50
2023-09-18T16:18:00,01,8.11
2023-09-18T16:19:00,01,8.11
2023-09-18T16:20:00,01,7.84
2023-09-18T16:21:00,01,7.84
2023-09-18T16:22:00,01,6.10
2023-09-18T16:23:00,01,6.10
2023-09-18T16:24:00,01,5.61
2023-09-18T16:25:00,01,5.61
2023-09-18T16:26:00,01,6.12
2023-09-18T16:27:00,01,6.12
2023-09-18T16:28:00,01,6.43
2023-09-18T16:29:00,01,6.43
2023-09-18T16:30:00,01,4.66
2023-09-18T16:31:00,01,4.74
2023-09-18T16:32:00,01,4.74
2023-09-18T16:33:00,01,5.95
2023-09-18T16:34:00,01,5.95
2023-09-18T16:35:00,01,8.37
2023-09-18T16:36:00,01,8.37
2023-09-18T16:37:00,01,6.90
2023-09-18T16:38:00,01,4.11
2023-09-18T16:39:00,01,4.11
2023-09-18T16:40:00,01,3.42
2023-09-18T16:41:00,01,3.42
2023-09-18T16:42:00,01,7.13
2023-09-18T16:43:00,01,7.13
2023-09-18T16:44:00,01,7.05
2023-09-18T16:45:00,01,5.70
2023-09-18T16:46:00,01,5.70
2023-09-18T16:47:00,01,3.97
2023-09-18T16:48:00,01,3.97
2023-09-18T16:49:00,01,5.16
2023-09-18T16:50:00,01,5.16
2023-09-18T16:51:00,01,8.63
2023-09-18T16:52:00,01,8.63
2023-09-18T16:53:00,01,4.44
2023-09-18T16:54:00,01,4.44
2023-09-18T16:55:00,01,5.36
2023-09-18T16:56:00,01,5.14
2023-09-18T16:57:00,01,5.14
2023-09-18T16:58:00,01,8.27
2023-09-18T16:59:00,01,8.27
2023-09-18T17:00:00,01,8.40
2023-09-18T17:01:00,01,8.40
2023-09-18T17:02:00,01,4.45
2023-09-18T17:03:00,01,4.42
2023-09-18T17:04:00,01,5.75
2023-09-18T17:05:00,01,6.09
2023-09-18T17:06:00,01,6.09
2023-09-18T17:07:00,01,4.48
2023-09-18T17:08:00,01,3.41
2023-09-18T17:09:00,01,3.41
2023-09-18T17:12:00,01,1.85
2023-09-18T17:13:00,01,6.13
2023-09-18T17:14:00,01,6.13
2023-09-18T17:15:00,01,4.35
2023-09-18T17:16:00,01,2.22
2023-09-18T17:17:00,01,2.22
2023-09-18T17:18:00,01,3.79
2023-09-18T17:19:00,01,6.23
2023-09-18T17:20:00,01,6.23
2023-09-18T17:21:00,01,5.14
2023-09-18T17:22:00,01,5.14
2023-09-18T17:23:00,01,3.18
2023-09-18T17:24:00,01,3.16
2023-09-18T17:25:00,01,3.16
2023-09-18T17:26:00,01,5.90
2023-09-18T17:27:00,01,5.90
2023-09-18T17:28:00,01,6.12
2023-09-18T17:29:00,01,6.12
2023-09-18T17:30:00,01,1.92
2023-09-18T17:31:00,01,2.58